Voltar ao catálogo

STARLINK-4689

AtivoComunicaçõesVLEO
NORAD 53590·PAYLOAD·🇺🇸 United States

Lançado Aug 28, 2022 de Cape Canaveral Space Force Station

Loading…

Próximas Passagens (próximas 24 horas)

TLE

AtualizadoSource: CelesTrak SupGP

Época: Sep 15, 2026, 01:44 UTC

1 53590C 22104C   26258.07270833 -.00022128  00000+0 -71151-3 0  2586
2 53590  53.1596  77.3036 0001273  76.4969 238.4123 15.31716638    18

Acompanhe STARLINK-4689 em tempo real com AllMySat

Download on the App Store